NIMIQ 2 1 27632U 02062A 26254.98754036 -.00000080 00000+0 00000+0 0 9998 2 27632 9.6425 55.9501 0005605 112.5035 68.8471 1.00267752045054 ANIK F2 1 28378U 04027A 26255.20100127 -.00000063 00000+0 00000+0 0 9992 2 28378 3.5067 78.2890 0003043 80.2304 153.9489 1.00272063042132 ANIK F1R 1 28868U 05036A 26255.13045431 -.00000088 00000+0 00000+0 0 9992 2 28868 4.5299 75.4505 0002853 55.7698 159.5863 1.00272129047324 ANIK F3 1 31102U 07009A 26255.27076825 -.00000015 00000+0 00000+0 0 9995 2 31102 1.4169 82.6721 0002589 87.3498 160.0264 1.00272397047437 NIMIQ 4 1 33373U 08044A 26255.27804829 -.00000235 00000+0 00000+0 0 9994 2 33373 0.0201 122.6288 0001951 42.6558 204.1282 1.00271914065857 TELSTAR 11N 1 34111U 09009A 26255.28680167 -.00000265 00000+0 00000+0 0 9998 2 34111 0.0351 260.2004 0002451 266.0396 250.7554 1.00272700047119 TERRESTAR-1 1 35496U 09035A 26255.05843399 -.00000069 00000+0 00000+0 0 9999 2 35496 5.2229 48.6676 0002427 104.7058 107.7541 1.00273599063006 NIMIQ 5 1 35873U 09050A 26255.13730101 -.00000272 00000+0 00000+0 0 9996 2 35873 0.0332 257.8035 0002650 274.2219 155.8486 1.00270550062214 SKYTERRA 1 1 37218U 10061A 26254.98910036 -.00000131 00000+0 00000+0 0 9998 2 37218 5.3076 50.6525 0000733 131.0162 64.1305 1.00271927058061 NIMIQ 6 1 38342U 12026A 26255.27622829 -.00000188 00000+0 00000+0 0 9995 2 38342 0.0393 281.0020 0002790 251.0341 187.5924 1.00272477051297 ANIK G1 1 39127U 13014A 26255.26364411 -.00000089 00000+0 00000+0 0 9994 2 39127 0.0297 254.0436 0002734 292.1957 152.6450 1.00271993049128 TELSTAR 12V 1 41036U 15068A 26255.29130836 -.00000133 00000+0 00000+0 0 9992 2 41036 0.0212 133.9287 0002093 36.5038 270.7398 1.00271936039493 VIASAT-2 1 42740U 17029A 26254.99525373 -.00000281 00000+0 00000+0 0 9998 2 42740 0.0211 240.3001 0000592 262.7443 136.3102 1.00271054034066 LEO 1 (LEO VANTAGE 1) 1 43113U 18004C 26255.21618238 .00001375 00000+0 99857-4 0 9993 2 43113 99.2409 184.9031 0348649 172.0279 188.6671 14.68260364450258 TELSTAR 19V 1 43562U 18059A 26255.13920769 -.00000295 00000+0 00000+0 0 9995 2 43562 0.0100 168.8143 0002628 5.2319 164.2085 1.00270737030019 TELSTAR 18V 1 43611U 18069A 26255.25031485 -.00000308 00000+0 00000+0 0 9997 2 43611 0.0244 250.6212 0001784 283.1481 45.6184 1.00271884029518 AMOS-17 1 44479U 19050A 26255.22630808 .00000095 00000+0 00000+0 0 9994 2 44479 0.0325 13.4122 0001689 164.7530 271.5808 1.00275465026057